Time,TemperatureF,DewpointF,PressureIn,WindDirection,WindDirectionDegrees,WindSpeedMPH,WindSpeedGustMPH,Humidity,HourlyPrecipIn,Conditions,Clouds,dailyrainin,SoftwareType,DateUTC
2013-05-23 00:17:00,76.3,66.0,29.85,East,85,0.0,0.0,70,0.00,,,0.00,weatherlink.com 1.10,2013-05-23 05:17:00,
2013-05-23 00:44:00,76.0,66.0,29.85,East,85,0.0,0.0,71,0.00,,,0.00,weatherlink.com 1.10,2013-05-23 05:44:00,
2013-05-23 01:03:00,75.8,67.0,29.85,East,85,0.0,0.0,75,0.00,,,0.00,weatherlink.com 1.10,2013-05-23 06:03:00,
2013-05-23 01:18:00,76.0,68.0,29.85,East,87,0.0,0.0,77,0.00,,,0.00,weatherlink.com 1.10,2013-05-23 06:18:00,
2013-05-23 01:33:00,76.7,69.0,29.85,ESE,118,0.0,0.0,78,0.00,,,0.00,weatherlink.com 1.10,2013-05-23 06:33:00,
2013-05-23 01:48:00,76.8,69.0,29.85,ESE,105,0.0,0.0,78,0.00,,,0.00,weatherlink.com 1.10,2013-05-23 06:48:00,
2013-05-23 02:03:00,76.7,70.0,29.84,ESE,105,0.0,0.0,79,0.00,,,0.00,weatherlink.com 1.10,2013-05-23 07:03:00,
2013-05-23 02:18:00,76.3,70.0,29.84,ESE,105,0.0,0.0,80,0.00,,,0.00,weatherlink.com 1.10,2013-05-23 07:18:00,
2013-05-23 02:33:00,76.0,70.0,29.84,ESE,105,0.0,0.0,81,0.00,,,0.00,weatherlink.com 1.10,2013-05-23 07:33:00,
2013-05-23 02:48:00,75.4,69.0,29.84,ESE,105,0.0,0.0,81,0.00,,,0.00,weatherlink.com 1.10,2013-05-23 07:48:00,
2013-05-23 03:03:00,74.9,69.0,29.84,ESE,105,0.0,0.0,83,0.00,,,0.00,weatherlink.com 1.10,2013-05-23 08:03:00,
2013-05-23 03:18:00,74.4,69.0,29.84,ESE,105,0.0,0.0,84,0.00,,,0.00,weatherlink.com 1.10,2013-05-23 08:18:00,
2013-05-23 03:33:00,73.7,69.0,29.84,ESE,105,0.0,0.0,85,0.00,,,0.00,weatherlink.com 1.10,2013-05-23 08:33:00,
2013-05-23 03:48:00,73.2,69.0,29.85,ESE,105,0.0,0.0,86,0.00,,,0.00,weatherlink.com 1.10,2013-05-23 08:48:00,
2013-05-23 04:03:00,73.2,69.0,29.85,ESE,105,0.0,0.0,87,0.00,,,0.00,weatherlink.com 1.10,2013-05-23 09:03:00,
2013-05-23 04:18:00,72.8,69.0,29.84,ESE,105,0.0,0.0,88,0.00,,,0.00,weatherlink.com 1.10,2013-05-23 09:18:00,
2013-05-23 04:33:00,72.5,69.0,29.84,ESE,105,0.0,0.0,88,0.00,,,0.00,weatherlink.com 1.10,2013-05-23 09:33:00,
2013-05-23 04:48:00,72.0,69.0,29.84,ESE,105,0.0,0.0,89,0.00,,,0.00,weatherlink.com 1.10,2013-05-23 09:48:00,
2013-05-23 05:03:00,71.8,69.0,29.85,ESE,105,0.0,0.0,89,0.00,,,0.00,weatherlink.com 1.10,2013-05-23 10:03:00,
2013-05-23 05:18:00,71.3,68.0,29.85,ESE,105,0.0,0.0,89,0.00,,,0.00,weatherlink.com 1.10,2013-05-23 10:18:00,
2013-05-23 05:33:00,71.5,69.0,29.85,ESE,105,0.0,0.0,90,0.00,,,0.00,weatherlink.com 1.10,2013-05-23 10:33:00,
2013-05-23 05:48:00,72.1,69.0,29.85,SSE,153,0.0,0.0,90,0.00,,,0.00,weatherlink.com 1.10,2013-05-23 10:48:00,
2013-05-23 06:03:00,72.5,69.0,29.85,SE,137,0.0,0.0,89,0.00,,,0.00,weatherlink.com 1.10,2013-05-23 11:03:00,
2013-05-23 06:18:00,72.7,69.0,29.85,SE,128,0.0,0.0,88,0.00,,,0.00,weatherlink.com 1.10,2013-05-23 11:18:00,
2013-05-23 06:33:00,72.7,68.0,29.86,SE,132,0.0,0.0,86,0.00,,,0.00,weatherlink.com 1.10,2013-05-23 11:33:00,
2013-05-23 06:48:00,72.8,68.0,29.86,SE,135,0.0,0.0,85,0.00,,,0.00,weatherlink.com 1.10,2013-05-23 11:48:00,
2013-05-23 07:03:00,73.0,68.0,29.87,SW,214,0.0,0.0,85,0.00,,,0.00,weatherlink.com 1.10,2013-05-23 12:03:00,
2013-05-23 07:18:00,73.2,68.0,29.87,South,171,0.0,0.0,84,0.00,,,0.00,weatherlink.com 1.10,2013-05-23 12:18:00,
2013-05-23 07:33:00,73.3,68.0,29.87,South,169,0.0,0.0,83,0.00,,,0.00,weatherlink.com 1.10,2013-05-23 12:33:00,
2013-05-23 07:48:00,73.7,68.0,29.88,South,175,0.0,0.0,82,0.00,,,0.00,weatherlink.com 1.10,2013-05-23 12:48:00,
2013-05-23 08:03:00,74.0,68.0,29.89,SSE,165,0.0,0.0,82,0.00,,,0.00,weatherlink.com 1.10,2013-05-23 13:03:00,
2013-05-23 08:18:00,74.4,68.0,29.89,SSE,161,0.0,0.0,81,0.00,,,0.00,weatherlink.com 1.10,2013-05-23 13:18:00,
2013-05-23 08:33:00,74.9,68.0,29.89,SSE,150,0.0,0.0,80,0.00,,,0.00,weatherlink.com 1.10,2013-05-23 13:33:00,
2013-05-23 08:48:00,75.3,68.0,29.90,SSE,154,0.0,0.0,78,0.00,,,0.00,weatherlink.com 1.10,2013-05-23 13:48:00,
2013-05-23 09:03:00,75.8,68.0,29.90,South,186,0.0,0.0,77,0.00,,,0.00,weatherlink.com 1.10,2013-05-23 14:03:00,
2013-05-23 09:19:00,76.0,68.0,29.91,South,182,0.0,0.0,77,0.00,,,0.00,weatherlink.com 1.10,2013-05-23 14:19:00,
2013-05-23 09:34:00,76.8,68.0,29.91,SSW,206,0.0,0.0,74,0.00,,,0.00,weatherlink.com 1.10,2013-05-23 14:34:00,
2013-05-23 09:49:00,77.7,68.0,29.92,South,179,0.0,0.0,72,0.00,,,0.00,weatherlink.com 1.10,2013-05-23 14:49:00,
2013-05-23 10:04:00,77.6,68.0,29.91,South,173,0.0,0.0,73,0.00,,,0.00,weatherlink.com 1.10,2013-05-23 15:04:00,
2013-05-23 10:19:00,77.6,68.0,29.91,SSW,201,0.0,0.0,73,0.00,,,0.00,weatherlink.com 1.10,2013-05-23 15:19:00,
2013-05-23 10:34:00,78.3,68.0,29.92,SSW,205,0.0,0.0,71,0.00,,,0.00,weatherlink.com 1.10,2013-05-23 15:34:00,
2013-05-23 10:49:00,79.9,68.0,29.91,South,191,0.0,0.0,68,0.00,,,0.00,weatherlink.com 1.10,2013-05-23 15:49:00,
2013-05-23 11:04:00,79.6,68.0,29.92,SSW,200,0.0,0.0,68,0.00,,,0.00,weatherlink.com 1.10,2013-05-23 16:04:00,
2013-05-23 11:19:00,81.4,69.0,29.92,SSE,162,0.0,0.0,65,0.00,,,0.00,weatherlink.com 1.10,2013-05-23 16:19:00,
2013-05-23 11:34:00,82.4,68.0,29.92,WSW,238,0.0,0.0,62,0.00,,,0.00,weatherlink.com 1.10,2013-05-23 16:34:00,
2013-05-23 11:49:00,84.5,68.0,29.92,South,175,0.0,0.0,58,0.00,,,0.00,weatherlink.com 1.10,2013-05-23 16:49:00,
2013-05-23 12:04:00,84.7,68.0,29.92,SSW,206,0.0,0.0,58,0.00,,,0.00,weatherlink.com 1.10,2013-05-23 17:04:00,
2013-05-23 12:19:00,85.5,68.0,29.92,South,179,0.0,0.0,57,0.00,,,0.00,weatherlink.com 1.10,2013-05-23 17:19:00,
2013-05-23 12:34:00,85.5,68.0,29.91,SSE,153,0.0,0.0,56,0.00,,,0.00,weatherlink.com 1.10,2013-05-23 17:34:00,
2013-05-23 12:49:00,86.5,68.0,29.91,SSW,206,0.0,0.0,54,0.00,,,0.00,weatherlink.com 1.10,2013-05-23 17:49:00,
2013-05-23 13:04:00,87.6,68.0,29.90,SSE,163,0.0,0.0,52,0.00,,,0.00,weatherlink.com 1.10,2013-05-23 18:04:00,
2013-05-23 13:19:00,87.8,68.0,29.90,SSE,149,0.0,0.0,52,0.00,,,0.00,weatherlink.com 1.10,2013-05-23 18:19:00,
2013-05-23 13:34:00,88.2,68.0,29.90,South,184,0.0,0.0,51,0.00,,,0.00,weatherlink.com 1.10,2013-05-23 18:34:00,
2013-05-23 13:49:00,88.0,68.0,29.90,SE,133,0.0,0.0,52,0.00,,,0.00,weatherlink.com 1.10,2013-05-23 18:49:00,
2013-05-23 14:04:00,87.6,68.0,29.90,SSE,156,0.0,0.0,52,0.00,,,0.00,weatherlink.com 1.10,2013-05-23 19:04:00,
2013-05-23 14:19:00,87.0,68.0,29.90,ESE,120,0.0,0.0,54,0.00,,,0.00,weatherlink.com 1.10,2013-05-23 19:19:00,
2013-05-23 14:34:00,85.7,68.0,29.91,SSE,167,0.0,0.0,56,0.00,,,0.00,weatherlink.com 1.10,2013-05-23 19:34:00,
2013-05-23 14:49:00,84.5,68.0,29.92,SE,136,0.0,0.0,58,0.00,,,0.00,weatherlink.com 1.10,2013-05-23 19:49:00,
2013-05-23 15:04:00,84.5,69.0,29.91,SSE,150,0.0,0.0,60,0.00,,,0.00,weatherlink.com 1.10,2013-05-23 20:04:00,
2013-05-23 15:19:00,84.5,69.0,29.91,ESE,117,0.0,0.0,59,0.00,,,0.00,weatherlink.com 1.10,2013-05-23 20:19:00,
2013-05-23 15:34:00,84.3,69.0,29.91,East,97,0.0,0.0,60,0.00,,,0.00,weatherlink.com 1.10,2013-05-23 20:34:00,
2013-05-23 15:49:00,84.1,69.0,29.90,ESE,109,0.0,0.0,60,0.00,,,0.00,weatherlink.com 1.10,2013-05-23 20:49:00,
2013-05-23 16:04:00,84.7,69.0,29.89,ENE,74,0.0,0.0,59,0.00,,,0.00,weatherlink.com 1.10,2013-05-23 21:04:00,
2013-05-23 16:19:00,85.3,68.0,29.88,ESE,115,0.0,0.0,57,0.00,,,0.00,weatherlink.com 1.10,2013-05-23 21:19:00,
2013-05-23 16:34:00,84.9,68.0,29.88,SSE,148,0.0,0.0,58,0.00,,,0.00,weatherlink.com 1.10,2013-05-23 21:34:00,
2013-05-23 17:04:00,85.5,68.0,29.86,East,97,0.0,0.0,56,0.00,,,0.00,weatherlink.com 1.10,2013-05-23 22:04:00,
2013-05-23 17:21:00,85.5,68.0,29.84,ENE,70,0.0,0.0,57,0.00,,,0.00,weatherlink.com 1.10,2013-05-23 22:21:00,
2013-05-23 17:34:00,85.1,68.0,29.84,ESE,107,0.0,0.0,57,0.00,,,0.00,weatherlink.com 1.10,2013-05-23 22:34:00,
2013-05-23 17:49:00,86.1,68.0,29.84,SE,136,0.0,0.0,55,0.00,,,0.00,weatherlink.com 1.10,2013-05-23 22:49:00,
2013-05-23 18:20:00,86.1,68.0,29.82,SE,137,0.0,0.0,55,0.00,,,0.00,weatherlink.com 1.10,2013-05-23 23:20:00,
2013-05-23 18:35:00,85.7,68.0,29.83,SE,140,0.0,0.0,55,0.00,,,0.00,weatherlink.com 1.10,2013-05-23 23:35:00,
2013-05-23 18:50:00,85.5,67.0,29.83,ESE,123,0.0,0.0,55,0.00,,,0.00,weatherlink.com 1.10,2013-05-23 23:50:00,
2013-05-23 19:05:00,85.3,67.0,29.83,SE,129,0.0,0.0,55,0.00,,,0.00,weatherlink.com 1.10,2013-05-24 00:05:00,
2013-05-23 19:20:00,85.1,68.0,29.83,East,88,0.0,0.0,56,0.00,,,0.00,weatherlink.com 1.10,2013-05-24 00:20:00,
2013-05-23 19:35:00,84.5,68.0,29.83,East,88,0.0,0.0,58,0.00,,,0.00,weatherlink.com 1.10,2013-05-24 00:35:00,
2013-05-23 19:50:00,84.1,68.0,29.82,East,97,0.0,0.0,59,0.00,,,0.00,weatherlink.com 1.10,2013-05-24 00:50:00,
2013-05-23 20:05:00,83.8,68.0,29.84,East,88,0.0,0.0,60,0.00,,,0.00,weatherlink.com 1.10,2013-05-24 01:05:00,
2013-05-23 20:20:00,83.6,68.0,29.86,East,90,0.0,0.0,60,0.00,,,0.00,weatherlink.com 1.10,2013-05-24 01:20:00,
2013-05-23 20:35:00,83.2,69.0,29.88,East,89,0.0,0.0,62,0.00,,,0.00,weatherlink.com 1.10,2013-05-24 01:35:00,
2013-05-23 20:50:00,83.0,69.0,29.90,East,81,0.0,0.0,62,0.00,,,0.00,weatherlink.com 1.10,2013-05-24 01:50:00,
2013-05-23 21:05:00,82.4,69.0,29.91,East,82,0.0,0.0,63,0.00,,,0.00,weatherlink.com 1.10,2013-05-24 02:05:00,
2013-05-23 21:20:00,82.2,68.0,29.92,ENE,67,0.0,0.0,63,0.00,,,0.00,weatherlink.com 1.10,2013-05-24 02:20:00,
2013-05-23 21:35:00,82.0,69.0,29.94,ENE,61,0.0,0.0,64,0.00,,,0.00,weatherlink.com 1.10,2013-05-24 02:35:00,
2013-05-23 21:50:00,81.6,70.0,29.95,ENE,63,0.0,0.0,68,0.00,,,0.00,weatherlink.com 1.10,2013-05-24 02:50:00,
2013-05-23 22:05:00,81.1,70.0,29.95,ENE,58,0.0,0.0,70,0.00,,,0.00,weatherlink.com 1.10,2013-05-24 03:05:00,
2013-05-23 22:20:00,80.5,71.0,29.96,NE,55,0.0,0.0,72,0.00,,,0.00,weatherlink.com 1.10,2013-05-24 03:20:00,
2013-05-23 22:35:00,80.1,71.0,29.98,ENE,57,0.0,0.0,74,0.00,,,0.00,weatherlink.com 1.10,2013-05-24 03:35:00,
2013-05-23 22:50:00,79.8,71.0,29.99,NE,55,0.0,0.0,75,0.00,,,0.00,weatherlink.com 1.10,2013-05-24 03:50:00,
2013-05-23 23:05:00,79.6,71.0,29.98,ENE,65,0.0,0.0,75,0.00,,,0.00,weatherlink.com 1.10,2013-05-24 04:05:00,
2013-05-23 23:20:00,79.2,71.0,29.98,ENE,78,0.0,0.0,76,0.00,,,0.00,weatherlink.com 1.10,2013-05-24 04:20:00,
2013-05-23 23:35:00,78.8,71.0,29.98,ENE,75,0.0,0.0,77,0.00,,,0.00,weatherlink.com 1.10,2013-05-24 04:35:00,
2013-05-23 23:50:00,78.6,71.0,29.98,ENE,69,0.0,0.0,77,0.00,,,0.00,weatherlink.com 1.10,2013-05-24 04:50:00,